Location: Cussy
(47.0410°N, 4.6412°E)
Time: 04:45:12
(UTC+00:00)

Cosmos 1470 Rocket - Pass Details

Date: 30 November 2020
Orbit: 604 x 633 km, 82.5° (Epoch: 18 January)

Event Time Altitude Azimuth Distance (km) Brightness Sun altitude
Rises 16:49:12 0° 358° (N) 2,875 6.8 -9.1°
Reaches altitude 10° 16:51:36 10° 8° (N) 1,964 5.8 -9.5°
Maximum altitude 16:55:34 34° 74° (ENE) 1,005 4.1 -10.1°
Drops below altitude 10° 16:59:30 10° 140° (SE) 1,949 5.9 -10.8°
Sets 17:01:52 0° 149° (SSE) 2,849 6.9 -11.1°
